Location: Alta
(39.2070°N, 120.8111°W)
Time: 01:24:22
(UTC+00:00)

ITAMSAT 1 - Pass Details

Date: 05 April 2023
Orbit: 782 x 797 km, 98.8° (Epoch: 29 May)

Event Time Altitude Azimuth Distance (km) Brightness Sun altitude
Exits shadow 03:06:42 - 146° (SSE) 3,268 10.4 -7.8°
Reaches altitude 10° 03:09:05 10° 140° (SE) 2,353 9.6 -8.3°
Maximum altitude 03:13:58 43° 70° (ENE) 1,108 8.1 -9.2°
Drops below altitude 10° 03:18:53 10° 0° (N) 2,374 10.4 -10.1°
Sets 03:21:19 0° 354° (N) 3,309 11.2 -10.5°
